CAPE
4 4 3 3 2 3 4 3 3 2 2 1 2 0 0 0 0 0 0 0 0 0 4 0 0 0 7 67 392 585 768 262 302 485 769 736 222 178 210 199 296 484 12 0 2
5 5 3 3 3 2 3 3 3 2 2 2 1 0 0 0 0 0 0 0 0 95 8 0 0 0 8 112 586 812 704 157 296 468 764 851 93 163 303 344 355 217 1 0 13
1 2 3 4 4 3 3 3 3 2 1 2 0 0 0 0 0 0 0 0 0 27 0 0 0 0 1 241 817 554 458 177 311 485 526 643 147 58 233 361 431 67 0 0 43
4 3 4 3 4 4 4 3 3 2 1 1 1 0 1 0 0 0 0 0 0 0 0 0 0 0 0 35 639 716 428 217 134 254 157 300 108 49 106 497 423 134 0 0 44
3 3 3 3 4 3 2 2 1 1 3 1 1 0 0 0 0 0 0 0 0 0 0 0 0 0 0 8 594 493 409 56 55 268 203 320 290 109 330 303 367 171 5 1 14
3 5 1 3 2 1 1 2 2 2 1 2 0 0 0 0 0 0 0 0 0 0 0 0 0 0 0 1 323 434 425 60 0 42 433 364 289 297 228 283 157 185 12 14 19
1 3 3 3 2 3 1 1 3 2 0 1 0 0 0 0 0 0 0 0 0 0 0 0 0 0 0 0 231 169 173 36 8 89 564 368 211 403 218 211 95 61 36 44 24
5 3 2 2 2 3 1 2 0 3 2 0 1 0 0 0 0 0 0 0 0 0 0 0 0 0 0 0 0 217 168 208 125 569 534 366 659 430 194 159 66 49 54 44 27
9 9 5 8 6 2 2 0 0 0 0 0 0 0 0 0 0 0 0 0 0 0 0 0 0 0 0 0 0 177 321 249 407 615 547 548 813 478 466 182 50 47 54 64 75
10 11 11 7 5 2 0 0 0 0 0 0 0 0 0 0 0 0 0 0 0 0 0 0 0 0 0 0 0 79 160 275 372 541 403 285 925 680 613 253 160 88 89 51 80
13 11 9 4 1 1 0 0 0 0 0 0 0 0 0 0 0 0 0 0 0 0 0 0 0 0 0 0 21 118 136 78 227 331 344 299 552 1043 299 484 423 376 180 141 90
8 2 2 2 1 0 0 0 0 0 0 0 0 0 0 0 0 0 0 0 0 0 0 0 0 0 0 0 4 75 140 82 136 277 144 242 439 950 812 668 682 444 279 229 174
4 3 1 1 0 0 0 0 0 0 0 0 0 0 0 0 0 0 0 0 0 0 0 0 0 0 0 0 0 98 190 102 65 19 11 48 390 943 724 910 691 589 416 283 176
2 2 0 0 0 0 0 0 0 0 0 0 0 0 0 0 0 0 0 0 0 0 0 0 0 0 0 0 0 59 101 40 90 81 146 168 235 524 871 671 826 493 521 510 271
1 3 0 1 0 0 0 0 0 0 55 0 0 0 0 0 0 0 0 0 0 0 0 0 0 0 0 0 0 7 140 49 9 21 50 144 202 54 898 996 906 975 816 677 427
1 1 0 0 0 0 0 0 0 1 80 0 0 0 0 0 0 0 0 0 13 9 0 0 0 0 0 0 0 21 80 53 16 29 70 48 171 251 442 455 426 628 756 985 866
0 0 1 0 0 0 0 0 52 159 26 0 0 0 0 0 2 0 0 0 22 21 0 4 0 0 9 12 0 42 19 59 27 19 40 21 168 119 57 154 260 257 424 697 1025
0 0 0 0 0 0 11 141 148 55 33 1 0 0 0 2 7 0 0 0 27 110 31 3 1 11 0 54 14 4 9 22 10 21 29 64 210 35 34 180 270 392 549 401 518
0 0 1 0 0 0 115 182 9 23 0 1 0 0 2 7 13 17 7 19 5 0 3 31 18 0 0 0 0 20 6 3 42 70 81 93 18 77 111 160 276 182 477 1278 502
0 2 32 0 0 33 221 19 53 0 0 6 0 0 32 11 6 13 38 0 0 0 0 25 16 0 0 0 0 0 2 47 10 68 98 130 56 131 97 158 96 129 321 771 1118
0 6 3 0 23 198 73 173 6 0 1 8 0 0 0 5 0 3 4 0 0 0 0 2 8 0 0 0 0 0 0 24 70 34 143 118 167 75 88 170 143 55 19 112 541
0 39 0 0 266 185 279 102 0 1 6 17 32 13 0 0 6 7 12 0 0 0 0 0 1 0 0 0 0 0 9 4 21 21 3 37 88 82 85 238 135 17 2 43 93
0 0 0 22 177 103 8 0 0 0 2 4 13 33 38 1 0 8 0 0 0 0 0 0 0 29 0 0 0 0 0 0 15 49 79 58 79 129 114 173 187 10 2 1 3
0 6 0 0 14 37 19 0 0 0 0 0 1 22 64 93 78 50 8 0 0 0 0 0 3 25 10 15 0 0 0 0 0 5 42 233 204 227 141 145 32 22 1 0 0
0 0 0 6 0 0 0 0 0 0 0 0 0 11 66 94 82 66 13 0 0 0 0 0 5 3 0 0 0 0 0 0 0 0 74 327 318 188 68 115 52 8 9 5 2
0 0 0 0 0 0 0 0 0 0 0 0 0 0 1 142 81 56 30 32 31 0 5 3 20 0 0 0 0 0 0 0 0 0 5 128 164 33 25 20 25 33 16 3 7
0 0 0 0 0 0 0 0 0 0 0 0 0 0 0 0 0 0 0 5 12 30 8 15 37 5 1 0 0 0 0 0 0 0 3 233 149 20 31 18 15 18 16 11 8
CIN
0 0 0 0 0 0 0 0 0 0 0 0 0 0 0 0 0 0 0 0 0 0 -143 0 0 0 -115 -18 0 -1 -1 -1 -4 -1 0 0 -40 -97 -44 -16 -12 -7 -21 0 0
0 0 0 0 0 0 0 0 0 0 0 0 0 0 0 0 0 0 0 0 0 -276 -411 0 0 0 -98 -5 0 -1 -1 -2 -4 0 0 0 -62 -36 -19 -17 -1 -1 0 0 -16
0 0 0 0 0 0 0 0 0 0 0 0 0 0 0 0 0 0 0 0 0 -272 0 0 0 0 -5 -2 0 -1 -2 -1 0 0 0 0 -17 -36 -5 -9 -1 -19 0 0 -22
0 0 0 0 0 0 0 0 0 0 0 0 0 0 0 0 0 0 0 0 0 0 0 0 0 0 0 0 -20 -2 -2 -2 -4 0 0 0 -22 -47 -16 -5 -1 -3 0 0 -18
0 0 0 0 0 0 0 0 0 0 0 0 0 0 0 0 0 0 0 0 0 0 0 0 0 0 0 0 -11 -5 -4 -3 -21 -1 -3 -1 -1 -14 -18 -36 -3 -9 0 0 -3
0 0 0 0 0 0 0 0 0 0 0 0 0 0 0 0 0 0 0 0 0 0 0 0 0 0 0 -1 -2 0 0 -9 0 -2 0 -1 0 0 -4 -7 -34 -28 -28 -28 -2
0 0 0 0 0 0 0 0 0 0 0 0 0 0 0 0 0 0 0 0 0 0 0 0 0 0 0 0 0 -2 0 -16 -13 -9 0 0 0 0 -20 -6 -44 -24 -20 -14 0
0 0 0 -1 0 0 0 -1 -1 0 0 0 0 0 0 0 0 0 0 0 0 0 0 0 0 0 0 0 0 -4 -1 -2 -1 0 -2 -2 0 -2 -18 -21 -42 -7 -8 -29 0
0 0 -1 -1 0 0 0 0 0 0 0 0 0 0 0 0 0 0 0 0 0 0 0 0 0 0 0 0 0 -1 0 -10 -1 -4 -1 -18 0 0 -1 -22 -23 -5 -6 -21 -15
-1 -1 -1 0 0 -1 0 0 0 0 0 0 0 0 0 0 0 0 0 0 0 0 0 0 0 0 0 0 0 -2 -1 -1 -2 0 -1 -9 0 0 0 -14 -32 -3 -1 -5 -15
-1 0 -1 0 0 0 0 0 0 0 0 0 0 0 0 0 0 0 0 0 0 0 0 0 0 0 0 0 -22 0 -2 -5 -55 -2 -4 -3 0 0 -23 -3 -5 -1 -2 -6 -6
-1 0 0 0 0 0 0 0 0 0 0 0 0 0 0 0 0 0 0 0 0 0 0 0 0 0 0 0 -1 -1 0 0 -16 0 -1 -1 0 0 0 0 0 0 -2 -1 -1
0 0 0 0 0 0 0 0 0 0 0 0 0 0 0 0 0 0 0 0 0 0 0 0 0 0 0 0 0 -1 0 -2 -1 -25 0 -1 0 0 -1 0 0 0 -1 -4 -9
0 0 0 0 0 0 0 0 0 0 0 0 0 0 0 0 0 0 0 0 0 0 0 0 0 0 0 0 0 0 0 -2 -1 0 0 0 0 0 -5 -1 0 -12 -2 -2 -2
0 0 0 0 0 0 0 0 0 0 -3 0 0 0 0 0 0 0 0 0 0 0 0 0 0 0 0 0 0 0 -1 -1 0 -5 -9 0 -9 -27 0 0 0 0 0 0 -31
0 0 0 0 0 0 0 0 0 -7 -1 0 0 0 0 0 0 0 0 0 -1 0 0 0 0 0 0 0 0 -3 0 -1 -3 -1 0 0 -1 -9 0 0 -1 0 -2 0 -3
-1 0 0 0 0 0 0 0 -4 -1 -47 0 0 0 0 0 0 0 0 0 -31 -17 0 0 0 0 -1 0 0 0 0 -1 -4 -1 0 0 -3 -94 -26 -7 -1 -10 0 0 -6
0 0 0 0 0 0 -120 -21 -3 -5 -13 0 0 0 -1 0 0 0 0 0 -2 -1 -8 0 0 0 0 0 0 0 0 0 0 0 0 -1 -9 -42 -81 -9 -5 -9 -1 -10 -1
0 0 -6 0 0 0 -44 -1 -4 -35 0 -3 0 0 -7 -2 -2 -1 0 -1 0 0 -36 -3 -1 0 0 -2 0 0 0 0 -1 0 0 -5 -64 -37 -15 -32 -85 -120 -58 -1 -4
0 -4 -21 0 0 -87 -3 -42 -28 0 0 -5 0 0 -2 -3 -1 -1 -9 0 0 0 0 -9 -1 0 0 0 0 0 -2 0 0 0 0 -6 -21 -4 -13 -49 -148 -182 -131 -69 -17
0 0 -12 0 -75 -13 -14 -9 -20 0 -1 -6 -1 0 0 -7 -1 -5 -2 0 0 0 0 0 -1 0 0 0 0 0 0 0 0 -1 -1 0 0 -3 -30 -101 -132 -255 -334 -292 -106
0 0 0 0 0 -1 0 -17 0 -30 -37 -11 -7 -6 0 0 -8 -2 0 0 0 0 0 0 0 0 0 0 0 0 -1 0 0 0 -10 -24 -1 0 -86 -63 -126 -273 0 -310 -266
0 0 0 -25 -1 -6 -89 0 0 0 -24 -24 -6 -9 0 -1 -1 0 -1 0 0 0 0 0 0 0 0 0 0 0 0 0 0 0 -1 -2 -11 -29 -54 -23 -75 -192 0 0 -255
0 0 0 0 -8 -18 -57 0 0 0 0 0 -65 -17 -2 0 -1 -1 -5 0 0 0 0 0 0 0 0 -1 0 0 0 0 0 0 0 -5 -51 -12 -20 -29 -69 -151 0 0 0
0 0 0 0 0 0 0 0 0 0 0 0 0 -54 -4 0 0 0 -6 0 0 0 0 0 0 0 0 0 0 0 0 0 0 0 -1 -5 -1 -6 -38 -18 -44 -1 -2 0 0
0 0 0 0 0 0 0 0 0 0 0 0 0 0 -39 -1 -4 0 0 -2 -1 -1 -12 -3 0 0 0 0 0 0 0 0 0 0 0 -1 0 -2 0 0 0 0 0 0 0
0 0 0 0 0 0 0 0 0 0 0 0 0 0 0 0 0 -79 0 -23 -31 -25 -21 -16 0 -5 0 0 0 0 0 0 0 0 0 0 0 0 0 0 0 0 0 0 0
Wind_Speed
13 14 13 13 12 13 13 13 13 12 11 11 11 9 9 10 10 13 14 2 8 14 10 16 16 12 12 11 3 7 3 4 5 6 12 16 8 3 6 8 4 3 24 23 24
15 14 14 14 14 13 13 13 13 13 12 11 10 10 8 7 14 18 6 8 8 15 16 18 17 15 13 13 5 6 3 7 8 11 13 12 8 7 3 9 9 12 24 25 22
15 15 15 15 15 14 13 12 12 12 13 11 9 9 7 6 13 0 19 14 9 17 19 17 15 16 16 9 6 5 4 2 12 12 14 14 13 6 6 8 13 18 26 25 22
14 15 16 16 15 15 14 13 13 13 12 11 9 7 8 10 3 11 12 14 13 21 20 17 15 16 14 12 6 5 10 7 6 8 8 11 14 10 6 4 8 16 23 23 22
15 15 15 16 17 16 15 15 14 13 13 11 10 6 9 10 11 11 15 15 18 21 19 17 17 17 15 13 14 5 12 2 4 9 12 12 12 13 11 7 8 16 24 23 20
15 16 16 15 16 16 16 16 14 13 12 12 9 7 10 13 7 11 16 19 20 22 18 17 13 15 11 9 8 10 9 2 3 8 11 13 14 11 7 12 13 20 24 22 20
17 16 16 16 16 14 16 16 17 14 11 11 9 9 12 6 2 10 15 18 21 18 18 16 10 9 12 10 11 2 10 9 7 10 11 16 12 12 9 14 18 20 22 20 19
17 17 17 17 17 15 14 16 16 15 10 9 10 11 9 4 6 11 15 17 17 17 13 11 5 13 10 3 10 13 13 12 12 13 8 9 11 17 11 12 19 22 20 18 18
16 16 16 15 15 14 12 16 16 3 10 9 12 13 6 4 13 12 11 14 14 14 11 7 13 15 13 11 14 14 14 16 13 8 12 9 18 18 17 15 16 17 18 18 17
16 14 14 13 13 13 10 14 7 12 9 11 10 9 10 15 14 12 13 14 15 14 10 13 11 14 13 15 16 18 18 20 10 11 13 13 19 19 16 17 14 17 13 16 16
16 15 12 11 12 11 11 7 9 9 12 8 12 11 11 16 14 14 12 15 14 16 14 17 15 18 20 21 21 16 15 13 11 15 10 11 20 19 16 17 18 16 14 11 16
15 15 12 12 11 12 9 7 10 9 9 15 6 4 5 16 17 15 17 15 14 17 19 14 18 17 17 16 14 20 19 18 4 10 8 14 17 16 17 14 17 15 16 12 18
14 12 11 10 10 6 11 6 8 7 9 12 11 14 12 19 15 18 21 17 18 19 20 15 14 15 13 16 15 18 15 14 11 9 15 13 18 20 10 8 9 15 14 13 15
15 12 11 10 3 1 6 4 8 3 9 14 12 9 19 18 15 18 21 10 13 20 18 15 9 13 12 17 19 17 17 19 21 15 12 18 10 19 23 13 14 10 8 12 16
15 12 9 7 12 10 7 8 10 5 8 15 16 14 14 22 19 19 18 15 15 14 13 16 13 13 18 17 19 13 9 5 10 17 11 22 10 14 18 17 16 18 16 17 13
15 12 10 7 9 11 6 8 6 10 2 8 10 13 19 20 16 21 18 9 10 13 14 12 10 15 17 16 17 3 17 12 12 14 13 14 11 14 16 15 16 11 12 16 19
13 10 8 7 8 9 8 9 10 5 9 10 10 16 20 16 18 19 19 16 12 14 15 6 16 16 11 16 13 9 13 12 12 14 11 18 7 8 13 6 9 8 11 14 18
13 8 12 9 9 8 7 13 2 13 9 2 6 12 18 17 18 20 19 17 9 17 16 12 16 10 13 15 14 18 21 13 13 14 14 11 13 12 13 10 11 13 7 7 18
13 8 12 2 3 6 9 9 9 9 6 6 6 18 12 16 11 17 13 12 5 5 9 15 12 10 4 14 9 18 21 25 15 18 15 14 16 14 13 13 15 7 8 14 7
7 7 2 5 6 8 11 2 8 7 1 14 14 12 11 11 12 17 8 5 3 4 10 10 14 15 11 9 13 13 15 20 10 14 16 18 18 15 15 12 8 10 11 13 16
9 7 6 5 8 12 4 12 7 7 3 8 20 6 14 3 8 6 4 7 4 7 8 11 3 12 9 14 16 11 13 15 14 16 12 14 10 18 15 11 10 9 11 12 14
8 6 7 5 10 4 9 6 4 4 2 1 7 8 8 5 1 4 6 9 4 8 11 6 9 12 17 5 4 12 11 17 12 18 14 6 11 16 14 17 14 11 10 11 12
3 4 3 9 7 6 6 8 9 2 5 3 3 6 5 16 7 10 9 2 4 5 6 3 11 8 6 8 8 11 12 11 15 16 12 16 13 17 10 17 16 13 12 12 13
5 2 5 4 5 6 4 3 8 3 5 5 2 3 9 9 6 9 8 4 4 2 7 6 13 7 6 3 12 19 7 9 14 11 11 2 25 20 19 17 13 14 13 13 14
4 6 6 6 7 8 4 2 2 5 3 1 3 3 4 3 6 9 10 8 6 5 4 7 9 6 6 6 8 7 10 7 15 17 10 19 20 20 16 18 17 12 12 13 14
2 1 4 5 1 5 3 8 6 7 10 5 4 1 4 4 9 7 5 7 5 3 3 5 5 7 6 0 0 5 7 5 5 4 8 18 18 16 16 13 13 13 13 12 12
2 1 7 5 3 5 8 6 5 3 7 6 3 2 7 7 7 8 7 5 4 6 4 6 5 7 12 5 5 11 12 11 7 5 9 17 18 15 15 14 12 12 11 11 11
Wind_Direction
341 340 339 334 333 332 331 329 327 326 327 327 321 314 313 296 281 231 239 25 185 170 228 189 191 198 210 220 240 245 280 57 43 122 125 127 116 349 279 128 211 108 137 137 147
339 335 332 329 327 328 327 325 324 322 323 324 321 310 313 307 263 251 160 124 145 180 201 179 189 191 200 215 212 215 223 37 57 107 138 127 123 145 183 138 122 116 127 139 154
334 332 330 327 327 325 324 322 320 318 317 318 314 309 306 286 269 149 130 155 178 202 214 195 191 197 221 178 195 248 128 108 73 91 119 135 134 138 176 128 142 140 144 151 156
331 330 327 324 324 320 317 317 317 314 311 310 305 299 298 254 264 89 147 157 189 202 220 208 199 211 227 213 153 227 218 159 111 134 118 128 125 158 174 119 135 147 153 155 161
325 325 320 319 317 315 313 311 308 304 301 301 295 288 265 221 255 109 157 163 182 205 207 199 204 211 221 207 150 183 259 185 156 144 108 124 142 146 119 114 131 153 161 160 165
321 316 316 314 312 313 311 308 301 296 292 290 277 268 248 248 42 123 171 167 181 203 198 202 207 219 267 225 180 200 236 191 210 148 132 136 134 131 128 123 142 167 160 164 163
320 318 316 313 310 311 309 307 300 288 275 272 254 243 260 292 25 162 167 177 183 201 193 203 220 206 234 216 188 230 227 209 171 136 143 141 131 111 135 136 150 164 163 162 163
321 320 318 315 313 312 311 306 292 276 246 242 240 234 280 77 176 174 182 173 183 208 208 197 218 236 263 190 189 221 242 184 141 169 138 190 117 130 146 156 160 163 162 162 166
317 314 314 312 311 310 310 301 304 202 187 195 223 230 232 139 185 174 184 170 174 195 204 139 237 224 218 227 209 207 205 133 167 162 151 134 130 137 144 152 164 171 165 169 168
314 310 310 313 312 308 302 286 328 161 191 204 275 222 206 189 171 169 173 181 172 162 159 205 212 214 215 217 202 195 227 150 166 180 202 117 119 150 158 155 178 184 172 175 175
318 315 314 318 313 307 291 199 201 184 204 261 158 268 147 157 145 182 171 177 184 182 194 199 210 208 202 211 232 219 217 253 156 150 175 161 133 154 169 192 172 181 186 197 185
320 323 320 317 313 302 259 269 32 337 264 212 263 317 141 148 173 174 180 183 196 200 206 185 222 201 221 214 243 258 215 172 88 146 225 134 137 141 173 159 167 183 176 201 199
323 320 318 313 315 252 260 5 327 312 253 161 196 207 196 193 183 169 188 200 197 208 205 204 201 217 216 203 216 238 220 137 163 177 234 167 134 139 164 155 166 172 199 188 213
325 322 316 319 276 304 244 359 308 323 267 140 187 212 178 207 195 175 207 197 198 209 200 225 210 195 208 196 217 207 232 152 214 191 194 197 156 165 153 168 171 172 184 221 217
326 317 305 277 322 269 358 306 327 244 250 148 155 135 186 209 143 176 205 216 208 208 199 204 184 188 207 213 212 225 167 209 192 218 201 194 121 305 151 160 173 168 211 194 211
322 311 304 207 222 269 308 292 236 231 144 157 152 194 176 219 159 163 200 246 250 208 207 225 215 197 208 215 202 289 163 197 224 240 239 219 189 205 166 172 177 184 178 212 177
310 294 257 307 308 327 293 251 224 264 242 137 177 193 193 179 172 168 191 195 206 183 197 190 193 203 241 198 195 171 195 192 208 217 228 220 156 101 72 52 99 157 206 192 191
303 293 214 266 283 272 248 240 131 271 37 25 286 208 204 175 158 178 185 198 218 221 182 185 186 168 210 234 182 205 210 207 192 206 206 206 134 114 120 114 70 23 360 268 201
312 209 252 340 319 266 259 270 272 54 331 317 221 282 208 172 175 179 195 184 153 285 327 182 165 123 271 252 269 190 235 229 273 208 212 129 90 125 114 93 65 47 355 360 287
271 258 162 318 266 252 255 354 76 43 304 260 178 303 182 176 211 197 154 35 163 238 292 306 129 191 169 233 255 272 229 240 246 251 214 130 160 142 139 96 67 40 27 17 351
249 245 71 303 254 250 202 72 87 89 317 322 176 213 294 194 214 170 59 87 313 303 284 309 271 158 180 205 209 210 242 246 249 262 215 153 112 112 112 97 88 59 39 21 31
273 263 34 259 253 321 46 16 284 67 158 85 320 158 183 248 332 138 117 25 354 308 261 247 290 163 203 84 319 303 246 219 245 231 273 10 91 98 131 123 99 82 55 42 42
321 21 37 284 283 95 111 92 31 77 26 28 89 307 243 178 207 269 135 62 22 342 13 326 254 140 181 188 206 238 218 273 258 276 270 254 133 127 130 97 93 89 75 56 49
283 225 102 48 4 95 132 94 125 60 74 68 24 211 195 187 180 189 145 135 92 41 313 286 280 260 16 60 201 207 226 234 273 243 245 177 137 143 135 115 96 98 89 76 59
330 57 346 28 54 57 51 7 86 110 118 330 111 349 332 188 166 166 145 141 184 145 227 289 265 324 60 12 356 163 199 218 238 256 311 128 144 140 128 119 120 98 84 79 75
358 79 109 103 295 153 133 53 66 61 340 80 88 77 245 57 349 137 181 194 141 167 234 232 255 262 203 347 339 229 166 269 293 291 256 118 107 110 107 114 108 108 104 84 73
79 102 283 175 202 55 38 48 78 67 62 35 4 133 101 55 15 26 357 31 74 281 177 266 236 225 244 143 246 238 215 210 187 236 265 154 139 136 144 132 116 106 86 77 69